SPACEMOBILE-003

Last updated on Mon Sep 21 2026 00:02:09 GMT+0000 (Coordinated Universal Time)

1 61045U 24163A 26262.66191923 .00001076 00000+0 63530-4 0 9991 2 61045 52.9679 235.0581 0006705 46.5917 313.5634 15.20415547112148
UTC large
Height (km)
Speed (km/s)
/
Latitude / Longitude
Inclination (degrees)
Orbital Period (minutes)
Azimuth
Elevation
Range (km)
Doppler Factor

Next 0 passes for location: London (51.5072 / 0.1276)

No passes found over London.
SPACEMOBILE-003